Regional Weather Roundup
Issued by NWS Northern Indiana

Home | Current Version | Previous Version | Graphics & Text | Print | Product List | Glossary On
Versions: 1 2 3 4 5 6 7 8 9 10 11 12 13 14 15 16 17 18 19 20 21 22 23 24 25 26 27 28 29 30 31 32 33 34 35 36 37 38 39 40 41 42 43 44 45 46 47 48 49 50
000
ASUS43 KIWX 031610
RWRIWX

KIWX WEATHER ROUNDUP
NATIONAL WEATHER SERVICE NORTHERN INDIANA
1200 PM EDT THU SEP 03 2015

NOTE: "FAIR" INDICATES FEW OR NO CLOUDS BELOW 12,000 FEET WITH NO
SIGNIFICANT WEATHER AND/OR OBSTRUCTIONS TO VISIBILITY.

* THESE STATIONS ARE NOT UNDER NWS QUALITY CONTROL. THEY ALSO MAY NOT
  REPORT WEATHER SUCH AS PRECIPITATION OR FOG.

INZ001>027-031700-
NORTHERN INDIANA

CITY           SKY/WX    TMP DP  RH WIND       PRES   REMARKS
GARY*          PTSUNNY   86  64  48 SW9       29.96S
VALPARAISO     SUNNY     85  70  60 SW10      29.99R
MICHIGAN CITY* CLOUDY    84  66  54 SW9       29.98S
LAPORTE*       SUNNY     85  71  62 SW8       29.99S
KNOX*          SUNNY     82  66  57 SW10      29.98S
SOUTH BEND     PTSUNNY   83  69  62 SW6       29.99R
ELKHART*       PTSUNNY   84  68  58 SW8       29.99S
GOSHEN         SUNNY     85  69  58 SW12      29.99S
MONTICELLO*    SUNNY     86  72  63 W8        29.99S
LOGANSPORT*    SUNNY     86  63  45 SW10G17   30.01S
ROCHESTER*     SUNNY     88  68  51 W9        30.00S
WARSAW*        SUNNY     84  68  58 SW8       30.00S
ANGOLA*        SUNNY     88  72  58 W9        30.00S
FORT WAYNE     MOSUNNY   84  70  62 W12       30.01F
HUNTINGTON*    SUNNY     85  65  50 SW7       30.00S
PERU/GRISSOM   SUNNY     86  70  59 W12       30.00S
MARION*        SUNNY     85  59  42 SW9       30.02S

$$
INZ028>050-031700-
CENTRAL INDIANA

CITY           SKY/WX    TMP DP  RH WIND       PRES   REMARKS
LAFAYETTE      SUNNY     86  69  56 W10       29.99F
KOKOMO*        SUNNY     88  70  55 SW13      30.01S
MUNCIE*        SUNNY     83  69  62 VRB6      30.03S
INDIANAPOLIS   MOSUNNY   87  67  51 SW13      30.02F

$$
MIZ043>046-050>051-056>058-064>065-071>073-077>080-031700-
SOUTHWEST LOWER MICHIGAN

CITY           SKY/WX    TMP DP  RH WIND       PRES   REMARKS
BATTLE CREEK   FAIR      84  71  65 SW8       29.98F
BENTON HARBOR  MOSUNNY   83  69  62 W12       29.96F
COLDWATER*     MOSUNNY   85  68  57 W8        29.99F
HILLSDALE*     MOSUNNY   85  70  61 W6        30.01S
HOLLAND        PTSUNNY   79  70  74 SW13      29.95F
GRAND RAPIDS   CLOUDY    73  70  90 S5        29.96R
KALAMAZOO      PTSUNNY   84  68  58 W14       29.97F
STURGIS*       SUNNY     82  72  69 W6        29.99S
THREE RIVERS*  FAIR      85  69  58 W6        29.98F

$$
OHZ001>008-015>018-024>025-031700-
NORTHWEST OHIO

CITY           SKY/WX    TMP DP  RH WIND       PRES   REMARKS
WAUSEON*       FAIR      84  73  70 W7        29.99S
DEFIANCE       MOSUNNY   86  70  58 SW7       29.99F
FINDLAY        SUNNY     85  71  63 SW7       29.99S
TOLEDO EXPRESS SUNNY     84  67  56 W12       29.98R
TOLEDO METCALF MOSUNNY   84  65  52 SW7       29.98S
LIMA           SUNNY     84  69  60 W10       30.01F

$$
AND FOR LAKE MICHIGAN COASTAL AND OPEN LAKE BUOY OBSERVATIONS

STATION/POSITION TEMP    WIND        PRES    VSBY  WAVE
                 AIR SEA DIR/SP/G                  HT/PER
                 (F)     (DEG/KT/KT) (MB)    (MI)  (FT/S)
CALUMET HARBOR           220/  4/ 11   N/A
MICHIGAN CITY     80     190/  8/  9   N/A
BURNS HARBOR      82     240/  8/ 14 1014.9S
SAINT JOSEPH      78     180/ 10/ 14 1014.9S
SOUTH LAKE BUOY   72 71  220/  8/ 10 1013.1R         1/ 3
4 MI NW BRIDGMAN  75 72  260/  8/  8   N/A           1/ 3
MICHIGAN CITY     78 73  250/  4/  6   N/A           1

$$
&&


USA.gov is the U.S. government's official web portal to all federal, state and local government web resources and services.